Vertical_Velocity
-2 2 2 2 -1 2 1 1 0 -0 -0 -4 -4 -4 -2 -6 -3 -4 -7 -3 -1 -3 -3 1 1 -6 -4 -8 -1 -1 -0 -2 -3 -3 -3 -2 -2 -2 -2 1 -1 -0 -3 -2 -1 -1 -3 -3 -2 -9 6 9 8 -2
0 2 1 -1 -1 1 -1 0 2 -1 -1 -2 -4 -2 -5 -5 -4 -1 4 3 -4 -4 -8 0 -6 1 -5 -6 -1 -1 -2 -3 -3 -1 -3 -1 -2 -3 -2 -2 -3 -2 -1 -1 -1 1 -0 -3 1 1 1 1 3 0
2 3 -3 3 2 -2 2 0 -0 -1 -4 -5 -5 -6 -2 -8 3 2 5 1 -1 4 -2 1 -9 1 -3 -5 -0 1 -3 -3 -2 -3 -1 -2 -2 -1 -1 -2 -2 -3 -1 -1 -1 -0 3 4 1 -3 -2 -2 -1 1
2 -1 2 4 -0 1 2 -4 -1 -4 -5 -0 -2 -7 -1 5 -7 -5 2 5 -4 2 -1 -1 -9 -1 -2 -5 -2 -1 -2 -2 -3 -2 -2 -3 -0 0 -1 -2 -1 2 -2 -1 -3 -4 -2 3 3 5 5 4 -1 -2
2 5 -0 -0 0 0 -2 -2 -3 -5 -2 -2 -1 1 1 -1 3 -2 -6 2 3 0 -3 -4 -6 -0 -2 -3 -1 -3 -2 -1 -2 -3 -2 -1 -0 -1 -0 -1 -4 1 0 -1 -4 -2 -1 0 -3 -4 -2 -0 0 1
-5 -3 5 5 -1 1 -3 -3 -4 -0 -7 -4 0 8 4 -5 4 2 -10 3 -2 -1 -2 -8 -4 -1 -3 -2 -2 -1 -1 -1 -2 -2 -3 -2 1 0 -2 -7 3 1 -1 -0 -0 -1 0 -1 -2 -2 -3 -2 -2 -1
0 -2 2 2 -2 -0 -9 -0 0 -4 -4 3 0 7 5 -5 -3 9 -12 7 -9 5 -6 -8 -3 -3 -2 -1 -2 -1 -0 0 -1 -1 -6 0 3 3 -6 -13 14 1 -3 -3 -2 -4 0 -0 -2 -1 -1 -2 -2 -1
-1 -1 0 0 -2 -1 -2 -5 -6 0 1 6 5 1 -4 2 7 -6 -2 -3 -5 5 -11 -3 -3 -2 -1 -1 -1 0 -1 2 -4 2 -3 -0 1 5 -20 7 -1 -1 -2 -2 -3 -1 -1 -2 -1 -2 -1 -0 0 -1
2 2 5 -3 -0 -6 -2 -3 -7 2 4 11 0 -4 1 10 -0 -5 -1 -5 2 -5 -8 -2 -2 -4 -1 -0 -0 -0 0 -2 2 -1 2 2 1 -13 4 -1 -0 2 0 -1 0 0 -1 -1 -1 -1 -0 0 -0 -1
1 3 1 -3 -2 -9 -4 -1 5 7 4 1 -4 3 6 -0 -3 -4 -3 -1 -5 -6 -4 -1 -2 -3 -1 -0 1 1 1 -1 1 -0 1 -3 -14 6 -1 -1 0 2 0 1 1 1 1 1 -1 0 -1 -0 -1 -1
4 4 -4 -4 -6 -7 4 4 1 0 2 1 3 1 -0 -2 -5 -2 -2 -5 -5 -3 -0 -1 -3 -1 -1 -1 1 1 0 1 -0 1 -1 0 -6 0 -1 -1 -1 -0 3 2 1 1 1 -0 -1 -1 -2 -2 -2 -2
3 -2 -7 -4 -6 -0 6 -2 0 3 6 5 3 -0 -2 -5 -2 -2 -4 -4 -2 -1 -1 -1 -0 0 -0 0 0 1 -1 -0 -1 1 -1 -3 1 -1 -1 -1 1 0 -1 -1 0 1 1 1 0 0 -1 -0 -0 -1
-3 -4 -4 -3 -1 2 -1 2 4 4 3 2 1 -2 -4 -3 -3 -5 -3 -3 -3 -2 -1 -1 -2 -1 -0 -1 -0 -0 -1 -0 -1 1 -4 -4 -2 -1 -2 -2 -2 -0 1 0 -0 -0 -0 -1 -2 -0 0 -0 0 0
-3 -4 -2 0 -2 -2 3 5 4 3 1 0 -2 -4 -2 -3 -3 -2 0 -1 -1 -0 -1 -1 0 -4 -1 -2 -0 -2 1 -2 -0 -2 -5 -2 -2 -2 -1 -1 -0 -1 -2 -2 -2 -2 -1 -0 -0 -3 -2 -2 -1 -1
-2 -0 1 -2 0 1 6 3 4 3 0 -3 -5 -2 -1 -2 0 -2 -1 0 1 1 -0 -0 1 -1 0 0 -1 -1 -1 -2 -4 -4 -0 -3 -2 -1 -0 0 -0 -2 -1 -1 -0 1 -0 -1 -1 -1 -1 -2 -1 -0
3 7 -1 0 2 5 4 5 4 1 -0 -2 -2 -3 -3 -1 -0 -0 0 -1 2 2 1 3 -1 -1 -1 -0 -0 -3 -1 -6 1 -1 -2 -2 -2 -1 0 -0 0 -0 -3 -1 -2 -1 -0 0 0 0 -0 -1 -2 0
4 -8 -1 3 3 5 2 4 2 0 -3 -6 -2 -3 -2 -3 0 1 -1 -1 -0 -1 -2 -1 -3 1 -1 -2 -4 -6 -9 3 -1 0 -0 -2 -1 -1 -1 -1 -1 -1 0 1 -0 1 -1 -1 0 0 0 -2 -1 -2
3 3 5 3 -2 -3 1 3 1 -3 -5 -2 -4 -1 -3 -1 -0 0 2 0 -1 -2 -0 -1 1 -1 -5 -5 -9 6 1 1 0 0 0 0 -0 1 0 -1 -0 -0 -0 0 0 -0 -1 0 -1 -0 0 -1 -0 -1
5 6 3 2 6 3 4 4 -3 -6 -2 -4 -4 -2 2 1 2 3 3 2 0 1 4 2 -6 -13 -6 2 0 2 -0 -1 -2 -3 -0 1 -1 -0 1 1 1 2 3 2 -1 5 2 3 -1 -0 0 0 0 1
8 6 5 8 7 3 5 -4 -4 -0 -4 -4 -1 -2 -6 -4 3 3 1 0 2 0 2 -14 -18 -6 1 6 1 2 3 -1 -1 -5 0 4 3 -0 1 2 2 1 0 2 1 -1 4 -1 2 3 -0 1 1 -0
12 4 7 9 2 2 1 -5 -4 -3 -2 -2 -2 -4 -3 0 -0 1 4 3 -3 -12 -9 -6 0 8 7 4 1 -1 -0 -3 -2 -1 -1 -4 6 -0 1 0 -1 -0 1 1 -1 7 10 -1 -3 2 -1 0 1 -1
8 2 3 2 0 -1 0 -4 -0 -6 -3 -3 -3 -0 -6 -2 1 3 4 -4 -14 -4 -4 3 4 5 2 0 2 -4 -1 -2 -1 -1 0 -2 -1 -0 0 -1 -1 0 1 2 1 1 -0 -1 -2 0 0 -0 1 0
7 3 6 3 -0 2 -5 -0 -3 -4 -1 -4 -0 -1 -3 -1 0 5 -2 -14 -8 2 3 1 1 1 -2 1 -2 -0 -2 -1 -1 -1 -0 -2 -1 -1 -1 0 -1 -1 -1 -0 -2 1 1 1 1 0 1 -0 1 1
10 9 7 -2 -1 3 -4 -5 -3 2 -3 -1 0 -1 -3 1 -2 2 -18 -8 3 -0 1 3 -2 -2 -2 -1 2 -1 -0 -0 -0 1 -2 0 0 -0 -1 -1 -1 -2 -2 -1 0 -1 0 0 0 1 1 0 0 1
6 0 5 4 4 2 -6 -5 0 -3 -6 2 -0 -3 -4 2 1 -5 -15 -1 2 -0 -1 -2 2 1 1 1 1 -1 -1 -1 0 1 -1 -0 -1 -0 -1 -1 -1 -1 -1 0 -0 -0 1 1 -0 -0 1 1 1 0
1 -2 -10 -1 -0 -7 -11 -5 -1 -1 1 1 -2 1 3 3 -0 -8 -11 3 -1 -1 1 1 0 0 -0 -2 -2 -1 -0 -0 -0 -1 -2 -1 -2 -2 -3 -3 -2 -1 -1 -0 -1 -1 -0 0 1 1 0 1 2 1
-4 5 -1 -2 1 -5 -8 -0 4 2 -1 -3 -6 3 4 -0 -6 -12 1 -0 0 -0 -1 -0 0 0 0 -0 -0 -0 -0 -1 -1 -1 -0 -1 -1 -2 -2 -1 -1 -2 2 0 -0 -1 -1 1 0 0 0 0 1 1
-7 -4 -7 -8 -10 -3 1 5 -0 -2 -3 -8 -2 0 -2 -5 -7 1 0 -1 -0 -1 -2 -1 -1 -1 -2 -1 -1 -1 -2 -2 -2 -1 -1 0 -1 -2 -3 -2 -2 -0 1 1 0 0 -1 -0 0 1 2 1 0 0
-1 2 -4 -4 5 -2 -3 -2 -4 -2 -3 -1 -3 -1 -4 1 8 2 0 3 0 -1 -2 -1 -2 -1 -1 -1 -1 -2 -2 -2 -3 -2 -1 1 1 -0 -2 -0 -1 -0 1 1 0 0 1 1 1 1 0 1 2 2
1 6 7 -2 -5 -12 -16 -7 -1 5 1 -1 0 -1 -1 -3 -1 0 1 1 -1 -2 -3 -2 -1 -1 -2 -2 -2 -3 -4 -3 -3 -4 -3 -0 -1 -0 0 1 1 1 0 1 -0 1 1 -1 -0 -1 0 0 1 2
14 -4 -1 2 -9 -7 -2 8 7 3 1 -3 -6 -7 0 -0 -2 -4 -3 -2 -2 -2 -1 1 -0 -2 -2 -2 -2 -0 1 -3 -1 -3 -2 -1 0 1 0 1 1 1 1 1 2 1 0 1 1 2 2 2 2 2
5 -3 6 -1 1 3 5 4 2 -5 -2 -3 -4 0 2 -4 -5 -2 0 -2 0 -2 1 -1 -1 -1 -2 -2 -4 -3 -0 -0 -2 -3 -2 -1 0 1 1 -0 1 1 0 0 1 2 1 1 1 1 2 2 2 1
1 4 6 6 2 -2 -3 1 -1 -1 -2 -2 -4 -5 -2 -4 -14 3 0 -4 -2 0 -1 -0 -1 -1 -1 -2 -2 -2 -1 0 -0 -1 -1 -0 1 2 0 0 2 3 3 2 1 1 0 0 0 1 0 0 1 1
Height
2906 2912 2919 2926 2934 2940 2947 2954 2960 2965 2969 2975 2980 2985 2988 2992 2996 3000 3005 3008 3010 3014 3019 3021 3024 3026 3028 3031 3034 3034 3035 3035 3036 3036 3036 3035 3035 3034 3033 3030 3028 3026 3024 3022 3020 3019 3019 3016 3012 3010 3011 3009 3005 3001
2911 2917 2924 2931 2937 2943 2948 2953 2959 2964 2970 2975 2979 2983 2987 2991 2995 2999 3001 3005 3007 3012 3018 3021 3025 3028 3028 3030 3033 3033 3034 3034 3035 3036 3036 3035 3035 3034 3033 3031 3029 3029 3027 3026 3025 3023 3020 3016 3013 3011 3009 3007 3005 3003
2915 2921 2927 2933 2938 2944 2950 2956 2961 2966 2971 2975 2978 2982 2987 2991 2994 2997 3000 3003 3007 3012 3015 3019 3024 3028 3028 3029 3032 3034 3033 3034 3034 3035 3034 3034 3034 3033 3032 3030 3029 3027 3026 3024 3024 3022 3019 3016 3014 3011 3009 3007 3003 3001
2918 2924 2930 2936 2942 2947 2952 2957 2961 2966 2971 2974 2979 2982 2986 2989 2993 2997 2999 3002 3007 3010 3013 3018 3023 3026 3026 3028 3030 3032 3032 3032 3033 3033 3033 3032 3032 3031 3029 3028 3026 3026 3025 3023 3022 3019 3017 3015 3012 3009 3006 3004 3001 2998
2921 2928 2934 2940 2945 2950 2955 2960 2964 2967 2971 2975 2979 2982 2986 2989 2992 2994 2998 3002 3004 3011 3011 3017 3022 3023 3024 3027 3029 3030 3031 3031 3031 3031 3031 3031 3029 3028 3026 3024 3022 3022 3021 3020 3019 3017 3015 3013 3010 3007 3004 3002 2999 2997
2925 2930 2936 2942 2947 2952 2955 2959 2964 2968 2972 2975 2979 2983 2987 2989 2992 2994 2997 3002 3003 3006 3010 3016 3020 3020 3022 3025 3027 3028 3028 3029 3029 3028 3028 3027 3027 3026 3023 3020 3019 3018 3017 3016 3016 3014 3012 3009 3007 3004 3002 2999 2997 2995
2927 2933 2939 2944 2949 2953 2957 2961 2965 2969 2973 2977 2981 2984 2987 2989 2992 2995 2999 3000 3002 3006 3008 3015 3016 3017 3020 3022 3024 3026 3026 3026 3026 3025 3023 3023 3023 3022 3018 3014 3015 3014 3013 3012 3012 3011 3009 3006 3004 3001 2999 2996 2994 2991
2929 2934 2940 2946 2950 2954 2957 2961 2966 2970 2975 2978 2981 2985 2987 2990 2993 2995 2997 2998 3001 3005 3008 3011 3013 3015 3018 3020 3022 3023 3023 3023 3021 3020 3018 3017 3016 3015 3009 3009 3009 3009 3009 3009 3008 3007 3006 3003 3001 2999 2996 2993 2991 2987
2930 2936 2942 2947 2951 2954 2957 2962 2966 2972 2975 2979 2983 2986 2988 2991 2993 2995 2996 2998 3001 3005 3005 3007 3009 3013 3015 3017 3019 3021 3020 3019 3017 3014 3014 3013 3008 3006 3004 3005 3005 3005 3005 3005 3004 3003 3002 3001 2998 2995 2993 2990 2986 2982
2931 2938 2943 2948 2951 2953 2957 2962 2967 2972 2976 2980 2983 2986 2988 2990 2992 2994 2995 2997 2997 2999 3001 3004 3007 3010 3013 3015 3017 3020 3017 3016 3012 3011 3009 3005 2999 3000 2999 2999 3000 3001 3002 3002 3001 3000 2998 2996 2994 2991 2988 2984 2980 2976
2932 2938 2944 2947 2950 2953 2957 2963 2967 2972 2975 2979 2982 2984 2987 2989 2991 2992 2992 2994 2995 2996 2996 2999 3004 3007 3011 3014 3016 3017 3015 3013 3010 3010 3007 3002 2997 2997 2996 2996 2997 2998 2998 2998 2998 2996 2994 2992 2989 2985 2982 2978 2974 2970
2931 2937 2942 2945 2949 2952 2957 2962 2967 2971 2975 2978 2981 2983 2985 2988 2989 2991 2990 2992 2992 2994 2995 2998 3001 3006 3009 3012 3014 3013 3012 3011 3008 3007 3005 2998 2996 2995 2995 2994 2995 2995 2995 2994 2993 2992 2990 2987 2983 2980 2976 2972 2968 2964
2930 2935 2939 2943 2947 2952 2957 2961 2966 2969 2972 2976 2979 2982 2984 2986 2986 2986 2988 2989 2990 2992 2994 2997 3001 3004 3007 3010 3011 3010 3008 3008 3006 3004 2999 2995 2994 2993 2993 2993 2993 2992 2992 2991 2990 2988 2985 2982 2978 2974 2970 2966 2962 2958
2927 2933 2937 2942 2946 2950 2955 2960 2964 2968 2971 2974 2977 2979 2981 2981 2982 2984 2987 2988 2990 2991 2994 2997 3000 3003 3005 3007 3007 3006 3006 3006 3003 2999 2994 2993 2992 2992 2992 2991 2991 2990 2989 2987 2985 2983 2980 2977 2973 2969 2965 2962 2958 2954
2926 2931 2936 2940 2944 2947 2953 2957 2961 2965 2968 2971 2974 2975 2976 2977 2980 2983 2984 2987 2989 2991 2994 2997 3000 3003 3004 3004 3003 3003 3003 3000 2996 2992 2992 2991 2990 2990 2989 2988 2987 2985 2984 2982 2980 2978 2975 2972 2968 2964 2960 2957 2954 2950
2927 2932 2935 2938 2942 2945 2949 2954 2958 2962 2964 2968 2969 2971 2973 2976 2979 2981 2983 2985 2988 2990 2993 2996 2998 2999 3000 2999 2998 2997 2996 2992 2991 2990 2989 2988 2987 2986 2985 2984 2983 2981 2979 2977 2975 2973 2970 2966 2963 2959 2955 2952 2949 2945
2924 2926 2931 2936 2940 2944 2947 2952 2955 2958 2962 2962 2964 2968 2972 2975 2976 2978 2981 2983 2986 2988 2990 2993 2994 2994 2994 2993 2991 2990 2988 2989 2987 2986 2985 2984 2983 2982 2981 2979 2978 2976 2974 2972 2970 2967 2964 2961 2958 2954 2951 2947 2944 2940
2920 2924 2930 2933 2937 2940 2944 2947 2951 2953 2954 2956 2961 2966 2969 2973 2975 2976 2978 2980 2982 2984 2986 2988 2989 2987 2987 2984 2983 2985 2984 2984 2983 2981 2980 2979 2978 2976 2975 2973 2971 2969 2968 2965 2963 2961 2959 2956 2953 2949 2946 2943 2940 2936
2917 2922 2927 2932 2935 2939 2943 2945 2948 2949 2951 2954 2959 2963 2965 2968 2970 2972 2974 2975 2977 2979 2981 2981 2982 2977 2977 2979 2980 2980 2979 2978 2976 2976 2974 2973 2971 2970 2968 2966 2964 2962 2960 2958 2955 2954 2952 2950 2948 2945 2942 2939 2936 2933
2914 2920 2925 2929 2932 2935 2938 2940 2944 2946 2948 2951 2955 2958 2960 2962 2965 2967 2968 2970 2971 2972 2971 2968 2968 2972 2974 2975 2974 2973 2972 2970 2969 2968 2967 2967 2965 2962 2960 2958 2956 2954 2951 2949 2948 2946 2945 2943 2942 2939 2937 2934 2931 2928
2910 2916 2922 2924 2927 2931 2933 2935 2938 2942 2943 2946 2950 2952 2953 2955 2958 2960 2961 2962 2963 2960 2958 2962 2967 2968 2968 2968 2967 2965 2964 2963 2962 2961 2960 2959 2958 2955 2953 2950 2948 2946 2943 2941 2940 2939 2937 2936 2935 2933 2931 2929 2926 2923
2906 2909 2915 2918 2922 2926 2929 2930 2935 2937 2941 2942 2944 2946 2948 2948 2951 2953 2953 2953 2952 2951 2954 2958 2960 2960 2960 2959 2958 2957 2957 2956 2956 2955 2953 2951 2949 2948 2946 2943 2940 2938 2935 2933 2932 2931 2930 2929 2928 2927 2925 2923 2920 2918
2901 2906 2911 2915 2919 2921 2923 2926 2930 2933 2937 2937 2939 2940 2940 2942 2944 2946 2945 2945 2943 2946 2949 2950 2950 2951 2950 2950 2950 2950 2950 2949 2949 2947 2946 2944 2942 2940 2938 2935 2931 2929 2927 2926 2925 2925 2923 2923 2922 2920 2919 2917 2914 2912
2897 2902 2906 2909 2911 2914 2915 2919 2922 2927 2929 2932 2933 2935 2936 2938 2939 2937 2935 2935 2937 2939 2939 2940 2940 2941 2941 2942 2942 2942 2943 2942 2942 2941 2939 2937 2936 2933 2930 2927 2924 2922 2921 2920 2920 2918 2917 2916 2915 2914 2913 2911 2909 2907
2895 2901 2903 2901 2902 2906 2909 2913 2916 2919 2921 2925 2928 2930 2931 2931 2931 2929 2928 2929 2931 2931 2931 2931 2932 2933 2934 2935 2936 2936 2936 2936 2936 2935 2932 2930 2928 2925 2923 2920 2918 2917 2915 2914 2913 2912 2911 2910 2908 2907 2906 2904 2903 2901
2886 2887 2890 2889 2894 2900 2902 2907 2910 2913 2917 2920 2922 2924 2924 2925 2925 2923 2921 2924 2923 2923 2924 2925 2926 2927 2928 2929 2930 2931 2931 2931 2929 2927 2925 2923 2921 2918 2916 2914 2912 2911 2909 2908 2907 2906 2904 2903 2902 2901 2899 2898 2897 2895
2876 2876 2877 2882 2887 2893 2899 2902 2906 2910 2912 2914 2916 2918 2919 2919 2918 2918 2919 2919 2920 2920 2920 2922 2923 2924 2925 2925 2925 2925 2924 2923 2922 2920 2918 2916 2914 2911 2909 2907 2905 2904 2903 2901 2900 2899 2898 2897 2895 2894 2893 2892 2891 2890
2867 2868 2873 2879 2885 2889 2892 2896 2900 2903 2906 2908 2910 2910 2912 2912 2914 2915 2916 2916 2917 2917 2918 2919 2919 2920 2920 2920 2919 2919 2917 2916 2914 2912 2910 2908 2906 2903 2900 2898 2898 2897 2895 2894 2893 2891 2891 2890 2889 2888 2888 2887 2885 2884
2858 2863 2871 2875 2880 2883 2886 2890 2893 2896 2899 2901 2903 2904 2906 2908 2911 2911 2911 2912 2912 2913 2914 2914 2913 2913 2913 2912 2911 2910 2909 2907 2905 2903 2901 2899 2897 2895 2892 2891 2890 2889 2888 2887 2886 2885 2884 2884 2883 2882 2881 2880 2879 2877
2852 2859 2864 2868 2871 2873 2878 2884 2888 2893 2895 2897 2899 2900 2901 2903 2905 2905 2906 2906 2906 2907 2906 2907 2906 2906 2905 2904 2903 2902 2900 2898 2896 2894 2891 2890 2888 2886 2884 2882 2881 2879 2878 2878 2878 2877 2877 2876 2875 2874 2873 2872 2871 2870
2848 2853 2857 2861 2864 2869 2873 2879 2883 2886 2889 2891 2893 2893 2895 2895 2895 2896 2897 2897 2898 2898 2899 2898 2898 2897 2896 2894 2893 2892 2891 2889 2886 2884 2881 2879 2877 2875 2873 2871 2870 2870 2870 2869 2870 2869 2869 2869 2868 2867 2866 2865 2863 2863
2841 2845 2850 2854 2858 2862 2867 2871 2875 2878 2880 2881 2883 2884 2885 2885 2885 2887 2887 2888 2889 2889 2890 2890 2889 2888 2887 2885 2884 2882 2881 2879 2877 2874 2871 2869 2867 2865 2863 2862 2861 2861 2861 2861 2861 2862 2862 2862 2861 2860 2859 2858 2857 2856
2835 2839 2843 2848 2852 2855 2859 2864 2866 2868 2870 2870 2872 2874 2875 2876 2874 2876 2876 2878 2879 2880 2880 2880 2879 2878 2877 2876 2875 2873 2871 2869 2866 2863 2861 2859 2858 2856 2854 2853 2852 2852 2853 2854 2854 2855 2855 2855 2854 2853 2852 2851 2851 2851